sat.trackr.live / text

‹ back to catalog

STARLINK-32685

NORAD 62500 · 2025-003P

PAYLOAD ACTIVE UNKNOWN

§ Identity

Operator
Country
US
Launch date
2025-01-06
Launch site
AFETR
Launch vehicle
Mass (kg)
RCS (m²)

Purposes: comms

External: N2YO · Heavens-Above · Gunter

§ Orbital elements

Epoch: 2026-09-21T16:27:09.282240Z

Period
94.27 min
Inclination
42.9991°
Eccentricity
0.0000496
Mean motion
15.27578208 rev/d
Perigee alt
482.7 km
Apogee alt
483.4 km
Semi-major
6,861.2 km
B*
2.6835e-4
RAAN
262.3454°
Arg perigee
256.5089°
Mean anomaly
103.5707°
Rev number
9,659

§ Raw data

STARLINK-326851 62500U 25003P   26264.68552410  .00007129  00000+0  26835-3 0  99992 62500  42.9991 262.3454 0000496 256.5089 103.5707 15.27578208 96596

JSON: /api/v1/satellites/62500 · /tle

For live sub-satellite position, see the globe view (requires WebGL).

§ Visibility from observer

Set your observer location to see the next 7 days of passes ≥ 10°. The values pass through the URL so the page stays shareable.

No JS? Fill the form by hand. The geolocation button needs JavaScript.